Weather History for Escanaba, MI

Change the Weather History Date:

Sunday, November 20, 2011

  Actual Average Record
Temperature  
Mean Temperature 30 °F -  
Max Temperature 33 °F 38 °F 55 °F (2013)
Min Temperature 26 °F 26 °F 5 °F (2014)
Degree Days  
Heating Degree Days 36    
Moisture  
Dew Point 19 °F    
Average Humidity 67    
Maximum Humidity 81    
Minimum Humidity 59    
Precipitation  
Precipitation 0.00 in - - ()
Sea Level Pressure  
Sea Level Pressure 30.23 in    
Wind  
Wind Speed 9 mph (NNW)    
Max Wind Speed 20 mph    
Max Gust Speed 36 mph    
Visibility 10 miles    
Events      
Averages and records for this station are not official NWS values.
T = Trace of Precipitation, MM = Missing Value Source: NWS Daily Summary

Daily Weather History Graph

Daily Weather History Graph

Search for Another Location

Airport:

Trip Planner

Search our weather history database for the weather conditions in past years. The results will help you decide how hot, cold, wet, or windy it might be!

Date:

Astronomy

Nov. 20, 2011 Rise Set
Actual Time 7:54 AM EST 5:12 PM EST
Civil Twilight 7:21 AM EST 5:45 PM EST
Nautical Twilight 6:45 AM EST 6:22 PM EST
Astronomical Twilight 6:10 AM EST 6:57 PM EST
Moon 2:07 AM EST (11/20) 2:14 PM EST (11/20)
Length of Visible Light 10h 23m
Length of Day
9h 18m
Waning Crescent, 27% of the Moon is Illuminated
Nov 20
Waning Crescent
Nov 25
New
Dec 2
First Quarter
Dec 10
Full
Dec 17
Last Quarter

Hourly Weather History & Observations

Time (EST) Temp. Windchill Dew Point Humidity Pressure Visibility Wind Dir Wind Speed Gust Speed Precip Events Conditions
12:15 AM 33.8 °F 26.4 °F 28.4 °F 81% 29.82 in 10.0 mi NNW 9.2 mph 16.1 mph N/A   Overcast
12:35 AM 33.8 °F 25.8 °F 28.4 °F 81% 29.85 in 10.0 mi NNW 10.4 mph - N/A   Overcast
12:55 AM 33.8 °F 24.8 °F 26.6 °F 75% 29.86 in 10.0 mi NNW 12.7 mph 20.7 mph N/A   Mostly Cloudy
1:15 AM 33.8 °F 25.3 °F 24.8 °F 70% 29.89 in 10.0 mi NNW 11.5 mph 23.0 mph N/A   Mostly Cloudy
1:35 AM 33.8 °F 24.8 °F 24.8 °F 70% 29.91 in 8.0 mi NNW 12.7 mph 28.8 mph N/A   Mostly Cloudy
1:55 AM 33.8 °F 24.8 °F 24.8 °F 70% 29.92 in 10.0 mi NNW 12.7 mph 20.7 mph N/A   Overcast
2:15 AM 32.0 °F 20.1 °F 24.8 °F 75% 29.95 in 9.0 mi NNW 19.6 mph 35.7 mph N/A   Overcast
2:35 AM 32.0 °F 23.0 °F 24.8 °F 75% 29.97 in 10.0 mi North 11.5 mph 24.2 mph N/A   Overcast
2:55 AM 32.0 °F 21.6 °F 23.0 °F 69% 29.99 in 10.0 mi North 15.0 mph 27.6 mph N/A   Overcast
3:35 AM 32.0 °F 23.0 °F 23.0 °F 69% 30.02 in 10.0 mi North 11.5 mph 17.3 mph N/A   Overcast
3:55 AM 30.2 °F 21.3 °F 23.0 °F 75% 30.03 in 10.0 mi North 10.4 mph 23.0 mph N/A   Overcast
4:15 AM 30.2 °F 19.3 °F 21.2 °F 69% 30.03 in 10.0 mi NNW 15.0 mph 21.9 mph N/A   Overcast
4:35 AM 30.2 °F 20.8 °F 21.2 °F 69% 30.03 in 10.0 mi North 11.5 mph 24.2 mph N/A   Overcast
4:55 AM 30.2 °F 21.3 °F 21.2 °F 69% 30.05 in 10.0 mi North 10.4 mph 19.6 mph N/A   Overcast
5:15 AM 30.2 °F 20.2 °F 19.4 °F 64% 30.07 in 10.0 mi North 12.7 mph 19.6 mph N/A   Overcast
6:15 AM 30.2 °F 22.6 °F 19.4 °F 64% 30.12 in 10.0 mi North 8.1 mph 16.1 mph N/A   Overcast
8:15 AM 28.4 °F 20.4 °F 15.8 °F 59% 30.19 in 10.0 mi North 8.1 mph - N/A   Overcast
8:35 AM 28.4 °F 19.7 °F 17.6 °F 64% 30.21 in 10.0 mi North 9.2 mph - N/A   Overcast
8:55 AM 28.4 °F 20.4 °F 15.8 °F 59% 30.23 in 10.0 mi NNW 8.1 mph - N/A   Overcast
9:15 AM 28.4 °F 22.2 °F 15.8 °F 59% 30.24 in 10.0 mi North 5.8 mph - N/A   Overcast
9:35 AM 28.4 °F 21.2 °F 15.8 °F 59% 30.27 in 10.0 mi NNW 6.9 mph - N/A   Overcast
9:55 AM 28.4 °F 22.2 °F 17.6 °F 64% 30.28 in 10.0 mi NNW 5.8 mph - N/A   Overcast
10:15 AM 28.4 °F 24.6 °F 17.6 °F 64% 30.29 in 10.0 mi NNW 3.5 mph - N/A   Overcast
10:35 AM 28.4 °F 19.7 °F 17.6 °F 64% 30.29 in 10.0 mi NW 9.2 mph - N/A   Overcast
10:55 AM 28.4 °F 19.7 °F 17.6 °F 64% 30.30 in 10.0 mi NW 9.2 mph - N/A   Overcast
11:35 AM 28.4 °F 19.7 °F 19.4 °F 69% 30.30 in 10.0 mi NW 9.2 mph - N/A   Overcast
11:55 AM 28.4 °F 22.2 °F 17.6 °F 64% 30.30 in 10.0 mi NW 5.8 mph - N/A   Overcast
12:15 PM 28.4 °F 20.4 °F 19.4 °F 69% 30.30 in 10.0 mi NW 8.1 mph - N/A   Overcast
12:35 PM 28.4 °F 20.4 °F 17.6 °F 64% 30.31 in 10.0 mi NW 8.1 mph - N/A   Overcast
1:15 PM 28.4 °F 19.7 °F 17.6 °F 64% 30.32 in 10.0 mi NNW 9.2 mph - N/A   Overcast
1:55 PM 28.4 °F 20.4 °F 17.6 °F 64% 30.33 in 10.0 mi NNW 8.1 mph - N/A   Overcast
2:15 PM 28.4 °F 20.4 °F 17.6 °F 64% 30.33 in 10.0 mi NNW 8.1 mph - N/A   Overcast
2:55 PM 28.4 °F 20.4 °F 17.6 °F 64% 30.33 in 10.0 mi NNW 8.1 mph - N/A   Overcast
3:15 PM 28.4 °F 22.2 °F 17.6 °F 64% 30.33 in 10.0 mi NNW 5.8 mph - N/A   Overcast
3:36 PM 28.4 °F 22.2 °F 17.6 °F 64% 30.33 in 10.0 mi NNW 5.8 mph - N/A   Overcast
3:55 PM 28.4 °F 21.2 °F 17.6 °F 64% 30.34 in 10.0 mi NNW 6.9 mph - N/A   Overcast
4:15 PM 28.4 °F 23.3 °F 17.6 °F 64% 30.34 in 10.0 mi NNW 4.6 mph - N/A   Overcast
5:15 PM 28.4 °F - 17.6 °F 64% 30.34 in 10.0 mi Calm Calm - N/A   Overcast
5:35 PM 28.4 °F 24.6 °F 19.4 °F 69% 30.35 in 10.0 mi NNW 3.5 mph - N/A   Overcast
5:55 PM 28.4 °F 23.3 °F 19.4 °F 69% 30.36 in 10.0 mi NNW 4.6 mph - N/A   Overcast
6:15 PM 28.4 °F 24.6 °F 17.6 °F 64% 30.37 in 10.0 mi NW 3.5 mph - N/A   Overcast
6:35 PM 28.4 °F 23.3 °F 17.6 °F 64% 30.37 in 10.0 mi NW 4.6 mph - N/A   Overcast
6:55 PM 28.4 °F 24.6 °F 17.6 °F 64% 30.38 in 10.0 mi NNW 3.5 mph - N/A   Overcast
7:15 PM 28.4 °F 22.2 °F 17.6 °F 64% 30.38 in 10.0 mi NNW 5.8 mph - N/A   Overcast
7:35 PM 28.4 °F 23.3 °F 17.6 °F 64% 30.38 in 10.0 mi NNW 4.6 mph - N/A   Overcast
7:55 PM 26.6 °F 21.2 °F 17.6 °F 69% 30.38 in 10.0 mi NNW 4.6 mph - N/A   Overcast
8:35 PM 26.6 °F 21.2 °F 17.6 °F 69% 30.37 in 10.0 mi NW 4.6 mph - N/A   Overcast
8:55 PM 26.6 °F 21.2 °F 17.6 °F 69% 30.37 in 10.0 mi NW 4.6 mph - N/A   Overcast
9:15 PM 26.6 °F 22.6 °F 17.6 °F 69% 30.37 in 10.0 mi NW 3.5 mph - N/A   Overcast
9:55 PM 26.6 °F - 17.6 °F 69% 30.38 in 10.0 mi Calm Calm - N/A   Overcast
10:15 PM 26.6 °F 22.6 °F 17.6 °F 69% 30.38 in 10.0 mi NNW 3.5 mph - N/A   Overcast
10:35 PM 26.6 °F - 17.6 °F 69% 30.38 in 10.0 mi Calm Calm - N/A   Overcast
10:55 PM 26.6 °F - 17.6 °F 69% 30.37 in 10.0 mi Calm Calm - N/A   Overcast
11:15 PM 26.6 °F - 17.6 °F 69% 30.37 in 10.0 mi Calm Calm - N/A   Overcast
11:35 PM 26.6 °F 22.6 °F 17.6 °F 69% 30.37 in 10.0 mi NNW 3.5 mph - N/A   Overcast
11:55 PM 26.6 °F 21.2 °F 19.4 °F 74% 30.37 in 10.0 mi NNW 4.6 mph - N/A   Overcast